Glenwood, MN

6:00 AM CST on January 18, 2018 (GMT -0600)
Glenwood Municipal

Weather History for KGHW - October, 2014

Change the Weather History Date:

Tuesday, October 7, 2014

  Actual Average Record
Temperature  
Mean Temperature 49 °F -  
Max Temperature 59 °F 62 °F 89 °F (2003)
Min Temperature 39 °F 38 °F 21 °F (2012)
Degree Days  
Heating Degree Days 16    
Moisture  
Dew Point 35 °F    
Average Humidity 63    
Maximum Humidity 87    
Minimum Humidity 33    
Precipitation  
Precipitation 0.00 in - - ()
Sea Level Pressure  
Sea Level Pressure 29.67 in    
Wind  
Wind Speed 11 mph (West)    
Max Wind Speed 29 mph    
Max Gust Speed 38 mph    
Visibility 10 miles    
Events      
Averages and records for this station are not official NWS values.
T = Trace of Precipitation, MM = Missing Value Source: NWS Daily Summary

Daily Weather History Graph

Daily Weather History Graph

Search for Another Location

Airport or City:

Trip Planner

Search our weather history database for the weather conditions in past years. The results will help you decide how hot, cold, wet, or windy it might be!

Date:

Astronomy

Oct. 07, 2014 Rise Set
Actual Time 7:27 AM CDT 6:50 PM CDT
Civil Twilight 6:57 AM CDT 7:19 PM CDT
Nautical Twilight 6:23 AM CDT 7:54 PM CDT
Astronomical Twilight 5:48 AM CDT 8:28 PM CDT
Moon 6:27 PM CDT (10/7) 6:22 AM CDT (10/7)
Length of Visible Light 12h 22m
Length of Day
11h 22m
Waxing Gibbous, 99% of the Moon is Illuminated
Oct 7
Waxing Gibbous
Oct 8
Full
Oct 15
Last Quarter
Oct 23
New
Oct 30
First Quarter

Hourly Weather History & Observations

Time (CDT) Temp. Windchill Dew Point Humidity Pressure Visibility Wind Dir Wind Speed Gust Speed Precip Events Conditions
12:13 AM 39.2 °F 34.2 °F 35.6 °F 87% 29.49 in 10.0 mi West 6.9 mph - N/A   Clear
12:33 AM 39.2 °F 33.6 °F 35.6 °F 87% 29.49 in 10.0 mi WSW 8.1 mph - N/A   Clear
12:53 AM 42.8 °F 38.6 °F 37.4 °F 81% 29.49 in 10.0 mi WSW 6.9 mph - N/A   Clear
1:13 AM 42.8 °F 39.3 °F 37.4 °F 81% 29.48 in 10.0 mi WSW 5.8 mph - N/A   Clear
1:33 AM 42.8 °F 38.6 °F 37.4 °F 81% 29.48 in 10.0 mi WSW 6.9 mph - N/A   Clear
1:53 AM 42.8 °F 38.6 °F 37.4 °F 81% 29.49 in 10.0 mi WSW 6.9 mph - N/A   Clear
2:13 AM 44.6 °F 40.7 °F 39.2 °F 81% 29.49 in 10.0 mi WSW 6.9 mph - N/A   Scattered Clouds
2:33 AM 44.6 °F 40.7 °F 37.4 °F 76% 29.50 in 10.0 mi WSW 6.9 mph - N/A   Scattered Clouds
2:53 AM 44.6 °F 40.7 °F 39.2 °F 81% 29.50 in 10.0 mi WSW 6.9 mph - N/A   Scattered Clouds
3:13 AM 44.6 °F 40.2 °F 39.2 °F 81% 29.49 in 10.0 mi WSW 8.1 mph - N/A   Scattered Clouds
3:33 AM 44.6 °F 41.4 °F 39.2 °F 81% 29.50 in 10.0 mi WSW 5.8 mph - N/A   Clear
3:53 AM 44.6 °F 41.4 °F 39.2 °F 81% 29.50 in 10.0 mi WSW 5.8 mph - N/A   Scattered Clouds
4:13 AM 44.6 °F 41.4 °F 39.2 °F 81% 29.51 in 10.0 mi WSW 5.8 mph - N/A   Mostly Cloudy
4:33 AM 44.6 °F 40.2 °F 39.2 °F 81% 29.51 in 10.0 mi WSW 8.1 mph - N/A   Mostly Cloudy
4:53 AM 44.6 °F 40.2 °F 39.2 °F 81% 29.51 in 10.0 mi WSW 8.1 mph - N/A   Mostly Cloudy
5:13 AM 46.4 °F 42.4 °F 39.2 °F 76% 29.52 in 10.0 mi West 8.1 mph - N/A   Scattered Clouds
5:33 AM 44.6 °F 41.4 °F 39.2 °F 81% 29.52 in 10.0 mi West 5.8 mph - N/A   Scattered Clouds
5:53 AM 44.6 °F 41.4 °F 39.2 °F 81% 29.53 in 10.0 mi West 5.8 mph - N/A   Clear
6:13 AM 44.6 °F 40.2 °F 39.2 °F 81% 29.54 in 10.0 mi West 8.1 mph - N/A   Scattered Clouds
6:33 AM 44.6 °F 40.7 °F 39.2 °F 81% 29.55 in 10.0 mi West 6.9 mph - N/A   Scattered Clouds
6:53 AM 44.6 °F 39.2 °F 41.0 °F 87% 29.56 in 10.0 mi West 10.4 mph - N/A   Scattered Clouds
7:13 AM 44.6 °F 39.2 °F 41.0 °F 87% 29.57 in 10.0 mi West 10.4 mph - N/A   Clear
7:33 AM 44.6 °F 39.2 °F 41.0 °F 87% 29.58 in 10.0 mi West 10.4 mph - N/A   Scattered Clouds
7:53 AM 46.4 °F 40.4 °F 41.0 °F 81% 29.58 in 10.0 mi WNW 13.8 mph - N/A   Mostly Cloudy
8:13 AM 46.4 °F 41.1 °F 41.0 °F 81% 29.60 in 10.0 mi WNW 11.5 mph - N/A   Scattered Clouds
8:33 AM 46.4 °F 40.4 °F 41.0 °F 81% 29.61 in 10.0 mi West 13.8 mph - N/A   Scattered Clouds
8:53 AM 46.4 °F 41.5 °F 41.0 °F 81% 29.61 in 10.0 mi West 10.4 mph - N/A   Mostly Cloudy
9:13 AM 48.2 °F - 42.8 °F 82% 29.62 in 10.0 mi West 15.0 mph 20.7 mph N/A   Scattered Clouds
9:33 AM 50.0 °F - 42.8 °F 76% 29.63 in 10.0 mi WNW 18.4 mph 23.0 mph N/A   Scattered Clouds
9:53 AM 51.8 °F - 42.8 °F 71% 29.64 in 10.0 mi WNW 20.7 mph 25.3 mph N/A   Scattered Clouds
10:13 AM 51.8 °F - 42.8 °F 71% 29.64 in 10.0 mi WNW 21.9 mph 29.9 mph N/A   Scattered Clouds
10:33 AM 51.8 °F - 42.8 °F 71% 29.65 in 10.0 mi WNW 26.5 mph 32.2 mph N/A   Scattered Clouds
10:53 AM 53.6 °F - 39.2 °F 58% 29.66 in 10.0 mi WNW 23.0 mph 28.8 mph N/A   Scattered Clouds
11:13 AM 53.6 °F - 37.4 °F 54% 29.67 in 10.0 mi NW 19.6 mph 28.8 mph N/A   Scattered Clouds
11:33 AM 51.8 °F - 35.6 °F 54% 29.68 in 10.0 mi WNW 24.2 mph 33.4 mph N/A   Mostly Cloudy
11:53 AM 53.6 °F - 37.4 °F 54% 29.69 in 10.0 mi WNW 25.3 mph 32.2 mph N/A   Mostly Cloudy
12:13 PM 51.8 °F - 37.4 °F 58% 29.70 in 10.0 mi WNW 15.0 mph - N/A   Mostly Cloudy
12:33 PM 53.6 °F - 37.4 °F 54% 29.70 in 10.0 mi WNW 17.3 mph 26.5 mph N/A   Scattered Clouds
12:53 PM 53.6 °F - 39.2 °F 58% 29.70 in 10.0 mi WNW 17.3 mph 26.5 mph N/A   Scattered Clouds
1:13 PM 55.4 °F - 39.2 °F 54% 29.70 in 10.0 mi WNW 24.2 mph 31.1 mph N/A   Scattered Clouds
1:33 PM 55.4 °F - 35.6 °F 47% 29.70 in 10.0 mi WNW 18.4 mph 32.2 mph N/A   Scattered Clouds
1:53 PM 57.2 °F - 32.0 °F 38% 29.70 in 10.0 mi WNW 28.8 mph 38.0 mph N/A   Clear
2:13 PM 57.2 °F - 32.0 °F 38% 29.70 in 10.0 mi WNW 26.5 mph 38.0 mph N/A   Scattered Clouds
2:33 PM 57.2 °F - 32.0 °F 38% 29.71 in 10.0 mi WNW 24.2 mph 34.5 mph N/A   Scattered Clouds
2:53 PM 59.0 °F - 32.0 °F 36% 29.71 in 10.0 mi West 28.8 mph 36.8 mph N/A   Scattered Clouds
3:13 PM 57.2 °F - 30.2 °F 36% 29.72 in 10.0 mi WNW 24.2 mph 29.9 mph N/A   Scattered Clouds
3:33 PM 57.2 °F - 30.2 °F 36% 29.72 in 10.0 mi WNW 28.8 mph 34.5 mph N/A   Scattered Clouds
3:53 PM 57.2 °F - 28.4 °F 33% 29.74 in 10.0 mi WNW 23.0 mph 29.9 mph N/A   Scattered Clouds
4:13 PM 57.2 °F - 30.2 °F 36% 29.74 in 10.0 mi WNW 21.9 mph 34.5 mph N/A   Scattered Clouds
4:33 PM 55.4 °F - 32.0 °F 41% 29.75 in 10.0 mi WNW 18.4 mph 26.5 mph N/A   Scattered Clouds
4:53 PM 55.4 °F - 32.0 °F 41% 29.76 in 10.0 mi WNW 19.6 mph 32.2 mph N/A   Clear
5:13 PM 55.4 °F - 32.0 °F 41% 29.76 in 10.0 mi WNW 24.2 mph 32.2 mph N/A   Clear
5:33 PM 55.4 °F - 30.2 °F 38% 29.77 in 10.0 mi WNW 16.1 mph 25.3 mph N/A   Clear
5:53 PM 55.4 °F - 32.0 °F 41% 29.77 in 10.0 mi WNW 13.8 mph 26.5 mph N/A   Mostly Cloudy
6:13 PM 53.6 °F - 30.2 °F 41% 29.79 in 10.0 mi WNW 21.9 mph 31.1 mph N/A   Scattered Clouds
6:33 PM 53.6 °F - 24.8 °F 33% 29.79 in 10.0 mi WNW 17.3 mph 24.2 mph N/A   Clear
6:53 PM 51.8 °F - 24.8 °F 35% 29.80 in 10.0 mi WNW 17.3 mph 21.9 mph N/A   Clear
7:13 PM 48.2 °F - 26.6 °F 43% 29.81 in 10.0 mi WNW 9.2 mph - N/A   Scattered Clouds
7:33 PM 48.2 °F - 28.4 °F 46% 29.82 in 10.0 mi WNW 6.9 mph - N/A   Scattered Clouds
7:53 PM 46.4 °F 43.5 °F 28.4 °F 50% 29.83 in 10.0 mi WNW 5.8 mph - N/A   Scattered Clouds
8:13 PM 48.2 °F - 28.4 °F 46% 29.84 in 10.0 mi WNW 6.9 mph - N/A   Mostly Cloudy
8:33 PM 48.2 °F - 28.4 °F 46% 29.84 in 10.0 mi WNW 6.9 mph - N/A   Scattered Clouds
8:53 PM 44.6 °F 40.7 °F 30.2 °F 57% 29.85 in 10.0 mi West 6.9 mph - N/A   Scattered Clouds
9:13 PM 44.6 °F 40.7 °F 30.2 °F 57% 29.86 in 10.0 mi West 6.9 mph - N/A   Scattered Clouds
9:33 PM 46.4 °F 42.4 °F 30.2 °F 53% 29.86 in 10.0 mi West 8.1 mph - N/A   Scattered Clouds
9:53 PM 44.6 °F 40.7 °F 30.2 °F 57% 29.86 in 10.0 mi West 6.9 mph - N/A   Scattered Clouds
10:13 PM 42.8 °F 39.3 °F 30.2 °F 61% 29.87 in 10.0 mi West 5.8 mph - N/A   Clear
10:33 PM 42.8 °F 39.3 °F 30.2 °F 61% 29.87 in 10.0 mi West 5.8 mph - N/A   Scattered Clouds
10:53 PM 42.8 °F 39.3 °F 32.0 °F 66% 29.87 in 10.0 mi West 5.8 mph - N/A   Mostly Cloudy
11:13 PM 42.8 °F 38.6 °F 32.0 °F 66% 29.88 in 10.0 mi WSW 6.9 mph - N/A   Scattered Clouds
11:33 PM 44.6 °F 40.2 °F 33.8 °F 66% 29.88 in 10.0 mi WSW 8.1 mph - N/A   Scattered Clouds
11:53 PM 44.6 °F 40.7 °F 35.6 °F 71% 29.88 in 10.0 mi West 6.9 mph - N/A   Scattered Clouds